Back to catalog

COSMOS 2251 DEB

AliveLEO
NORAD 34819·DEBRIS·🇷🇺 Russia

Launched Jun 16, 1993 from Plesetsk Cosmodrome

Loading…

Next Passes (next 24 hours)

TLE

FreshSource: Space-Track

Epoch: Sep 14, 2026, 14:31 UTC

1 34819U 93036ABJ 26257.60495464  .00003361  00000-0  60043-3 0  9995
2 34819  74.0184 330.6706 0016713 349.4832  80.0213 14.67257259922710

Track COSMOS 2251 DEB in real time with AllMySat

Download on the App Store